Regional Weather Roundup
Issued by NWS

Home | Current Version | Previous Version | Graphics & Text | Print | Product List | Glossary On
Versions: 1 2 3 4 5 6 7 8 9 10 11 12 13 14 15 16 17 18 19 20 21 22 23 24 25 26 27 28 29 30 31 32 33 34 35 36 37 38 39 40 41 42 43 44 45 46 47 48 49 50
448
ASUS43 KIND 231400
RWRIN

WEATHER ROUNDUP FOR INDIANA
NATIONAL WEATHER SERVICE INDIANAPOLIS IN
1000 AM EDT WED MAY 23 2018

NOTE: "FAIR" INDICATES FEW OR NO CLOUDS BELOW 12,000 FEET WITH NO
SIGNIFICANT WEATHER AND/OR OBSTRUCTIONS TO VISIBILITY.

* - STATION DOES NOT REPORT WEATHER SUCH AS PRECIPITATION OR FOG.

+ - STATION NOT QUALITY CONTROLLED BY THE NATIONAL WEATHER SERVICE.
    USE DATA WITH CAUTION...ESPECIALLY DEWPOINT AND RELATIVE
    HUMIDITY OBSERVATIONS.

INZ001>003-010>013-019-020-231500-
NORTHWEST INDIANA

CITY           SKY/WX    TMP DP  RH WIND       PRES   REMARKS
GARY /AIRPORT/ MOSUNNY   64  57  77 CALM      30.21S HAZE
MICHIGAN CITY+ FAIR      59  59 100 CALM      30.22R
MONTICELLO +   CLOUDY    60  57  92 NE3       30.20R

$$

LMZ046-743>745-231500-
SOUTHERN LAKE MICHIGAN

STATION/POSITION TIME  TEMP    WIND        PRES    WAVE
                       AIR SEA DIR/SP/G            HT
                 (UTC) (F)     (DEG/KT/KT) (MB)    (FT)
BURNS HARBOR     1340   53        CALM     1023.7R
MICHIGAN CITY    1330   53     340/  3/  4   N/A
5NW MICH CITY    1350   49 54   20/  4/  4   N/A     0

$$

INZ004-005-014>016-021>024-231500-
NORTH CENTRAL INDIANA

CITY           SKY/WX    TMP DP  RH WIND       PRES   REMARKS
ELKHART        FAIR      66  55  68 CALM      30.21R
GOSHEN         FAIR      64  56  75 VRB3      30.20R
SOUTH BEND     FAIR      64  57  78 NE8       30.21R

$$

INZ006>009-017-018-025>027-231500-
NORTHEAST INDIANA

CITY           SKY/WX    TMP DP  RH WIND       PRES   REMARKS
ANGOLA *+      FAIR      64  57  77 NW6       30.19S
FORT WAYNE     FAIR      67  57  70 VRB3      30.20R
KENDALLVILLE + FAIR     N/A N/A N/A N5        30.20S

$$

INZ028-029-035-036-043>045-051>053-231500-
WEST CENTRAL INDIANA

CITY           SKY/WX    TMP DP  RH WIND       PRES   REMARKS
CRAWFORDSVL +  FAIR      62  60  92 SE5       30.18S
GREENCASTLE +  FAIR      66  57  72 CALM      30.18S
LAFAYETTE      CLOUDY    59  57  93 E5        30.19R FOG
TERRE HAUTE    FAIR      68  58  70 E3        30.17R

$$

INZ030>032-037>040-046>048-054>057-064-065-231500-
CENTRAL INDIANA

CITY           SKY/WX    TMP DP  RH WIND       PRES   REMARKS
ANDERSON       MOSUNNY   64  57  77 E6        30.19R
INDIANAPOLIS   FAIR      68  58  70 E7        30.17R
-EAGLE CREEK   FAIR      68  58  70 NE7       30.17R
KOKOMO +       FAIR      64  58  80 NE7       30.20R
MT COMFORT *+  FAIR      66  63  88 NE7       30.19R
SHELBYVILLE    FAIR      69  59  70 VRB5      30.16R

$$

INZ033-034-041-042-049-050-058-059-231500-
EAST CENTRAL INDIANA

CITY           SKY/WX    TMP DP  RH WIND       PRES   REMARKS
MUNCIE         FAIR      67  57  70 NE8       30.19R
RICHMOND +     FAIR      64  59  82 N9        30.18R

$$

INZ060-061-067>069-081>083-085>088-231500-
SOUTHWEST INDIANA

CITY           SKY/WX    TMP DP  RH WIND       PRES   REMARKS
EVANSVILLE     FAIR      74  62  66 NE8       30.14R
HUNTINGBURG +  FAIR      73  62  68 N6        30.15R

$$

INZ062-063-066-070>080-084-089>092-231500-
SOUTH CENTRAL AND SOUTHEAST INDIANA

CITY           SKY/WX    TMP DP  RH WIND       PRES   REMARKS
BLOOMINGTON    FAIR      69  60  73 CALM      30.16R
FRENCH LICK *+ FAIR      70  52  52 NE5       30.15S
SEYMOUR +      FAIR      70  59  68 NE6       30.15R

$$





USA.gov is the U.S. government's official web portal to all federal, state and local government web resources and services.